Regional Weather Roundup
Issued by NWS Portland, ME

Current Version | Previous Version | Text Only | Print | Product List | Glossary Off
Versions: 1 2 3 4 5 6 7 8 9 10 11 12 13 14 15 16 17 18 19 20 21 22 23 24 25 26 27 28 29 30 31 32 33 34 35 36 37 38 39 40 41 42 43 44 45 46 47 48 49 50
000 ASUS41 KGYX 261010 RWRGYX WEATHER ROUNDUP FOR MAINE AND NEW HAMPSHIRE NATIONAL WEATHER SERVICE GRAY ME 600 AM EDT SAT MAY 26 2018 MEZ002-005-006-010-012-015-018-020-021-024-026-027-029-261100- MAINE CITY SKY/WX TMP DP RH WIND PRES REMARKS PORTLAND MOCLDY 67 57 70 SW5 29.68R SANFORD FAIR 61 56 83 CALM 29.70R BAR HARBOR MOCLDY 64 57 78 S6 29.63R WISCASSET FAIR 63 60 90 CALM 29.68R ROCKLAND FAIR 66 57 72 SW6 29.66R FRYEBURG FAIR 66 56 70 W6 29.69S LEWISTONAUBURN FAIR 68 57 68 SW7 29.67R AUGUSTA FAIR 70 56 61 W9 29.66R WATERVILLE FAIR 69 58 67 SW6 29.63R BANGOR LGT RAIN 65 62 90 CALM 29.62R GREENVILLE N/A 62 58 86 NW10 29.64R MILLINOCKET FAIR 63 59 87 CALM 29.63R HOULTON CLOUDY 62 60 93 W3 29.60R PRESQUE ISLE CLOUDY 54 49 83 N7 29.63R FRENCHVILLE CLOUDY 52 42 69 N8 29.63R CARIBOU PTSUNNY 52 47 83 NE7 29.62R $$ NHZ002-005-008-009-011-012-014-261100- NEW HAMPSHIRE CITY SKY/WX TMP DP RH WIND PRES REMARKS PORTSMOUTH MOCLDY 67 52 59 W5 29.69R ROCHESTER FAIR 63 56 78 CALM 29.69R NASHUA FAIR 64 57 78 CALM 29.73R MANCHESTER MOCLDY 70 53 54 VRB3 29.71R CONCORD FAIR 63 54 72 CALM 29.72R LACONIA CLOUDY 61 58 90 CALM 29.72R PLYMOUTH FAIR 59 57 95 CALM 29.71S BERLIN CLOUDY 62 58 86 CALM 29.71R WHITEFIELD CLOUDY 62 60 93 CALM 29.72R JAFFREY FAIR 63 55 75 S5 29.78R KEENE FAIR 56 53 90 CALM 29.77R LEBANON CLOUDY 62 58 86 NE7 29.73R MT WASHINGTON FOG 45 45 100 W45G52 N/A VSB 1/16 $$ VTZ005-007-008-261100- VERMONT CITY SKY/WX TMP DP RH WIND PRES REMARKS ST JOHNSBURY N/A 62 60 93 MISG 29.70R MONTPELIER CLOUDY 66 56 70 SW3 29.77R BURLINGTON LGT RAIN 64 61 90 E3 29.71R $$ MAZ007-012-024-CTZ003-RIZ002-NYZ038-NYZ072-261100- SOUTHERN NEW ENGLAND AND NY CITY SKY/WX TMP DP RH WIND PRES REMARKS BOSTON FAIR 70 59 68 SW14 29.72S WORCESTER FAIR 66 58 75 W15 29.77R NANTUCKET FAIR 57 57 100 SW18 29.81R PROVIDENCE FAIR 68 61 78 SW8 29.77S HARTFORD FAIR 64 60 87 S6 29.77S ALBANY MOCLDY 63 53 70 CALM 29.77R NEW YORK CITY FAIR 75 64 68 SW13 29.81R $$ ANZ081-ANZ082-ANZ150-NHZ014-MEZ023>029-261100- COASTAL MARINE OBSERVATIONS STATION/POSITION TIME TEMP WIND PRES WAVE AIR SEA DIR/SP/G HT/PER (UTC) (F) (DEG/KT/KT) (MB) (FT/S) MOUNT DESERT ROC 1000 53 220/ 17/ 18 1003.7R MATINICUS ROCK 1000 56 250/ 20/ 21 1003.7R ISLE OF SHOALS 1000 72 250/ 16/ 16 1004.9R JEFFREYS LEDGE 0936 54 N/A 3/ 5 $$ .............KEY.............. WCI - WIND CHILL TC - TEMPERATURE IN CELSIUS VSB - VISIBILITY IN MILES HX - HEAT INDEX FAIR- INDICATES FEW OR NO CLOUDS BELOW 12,000 FT, WITH NO SIGNIFICANT WEATHER AND/OR OBSTRUCTIONS TO VISIBILITY.

USA.gov is the U.S. government's official web portal to all federal, state and local government web resources and services.